Location: Ajisawe
(8.4333°N, 4.3833°E)
Time: 23:22:59
(UTC+00:00)

Vanguard 1 Rocket - Pass Details

Date: 22 April 2021
Orbit: 652 x 4224 km, 34.3° (Epoch: 10 May)

Event Time Altitude Azimuth Distance (km) Brightness Sun altitude
Rises 04:48:15 0° 214° (SW) 8,428 11.9 -10.9°
Reaches altitude 10° 04:57:36 10° 199° (SSW) 7,399 11.7 -8.7°
Maximum altitude 05:13:47 20° 159° (SSE) 5,885 11.6 -4.8°
Drops below altitude 10° 05:26:11 10° 117° (ESE) 5,715 12.3 -1.8°
Sets 05:31:39 0° 101° (ESE) 6,132 13.1 -0.5°
